Lordsburg, NM

1:29 AM MDT on October 19, 2017 (GMT -0600)
Lordsburg

Weather History for KLSB - April, 2014

Change the Weather History Date:

Tuesday, April 15, 2014

  Actual Average Record
Temperature  
Mean Temperature 56 °F -  
Max Temperature 73 °F 78 °F 80 °F (2013)
Min Temperature 39 °F 36 °F 39 °F (2014)
Degree Days  
Heating Degree Days 9    
Growing Degree Days 6 (Base 50)    
Moisture  
Dew Point 14 °F    
Average Humidity 21    
Maximum Humidity 36    
Minimum Humidity 10    
Precipitation  
Precipitation 0.00 in - - ()
Sea Level Pressure  
Sea Level Pressure 30.08 in    
Wind  
Wind Speed 17 mph (SE)    
Max Wind Speed 24 mph    
Max Gust Speed 34 mph    
Visibility 10 miles    
Events      
Averages and records for this station are not official NWS values.
T = Trace of Precipitation, MM = Missing Value Source: NWS Daily Summary

Daily Weather History Graph

Daily Weather History Graph

Search for Another Location

Airport or City:

Trip Planner

Search our weather history database for the weather conditions in past years. The results will help you decide how hot, cold, wet, or windy it might be!

Date:

Astronomy

Apr. 15, 2014 Rise Set
Actual Time 6:43 AM MDT 7:46 PM MDT
Civil Twilight 6:17 AM MDT 8:12 PM MDT
Nautical Twilight 5:46 AM MDT 8:43 PM MDT
Astronomical Twilight 5:15 AM MDT 9:14 PM MDT
Moon 8:28 PM MDT (4/15) 6:53 AM MDT (4/15)
Length of Visible Light 13h 54m
Length of Day
13h 03m
Full, 100% of the Moon is Illuminated
Apr 15
Full
Apr 22
Last Quarter
Apr 29
New
May 6
First Quarter
May 14
Full

Hourly Weather History & Observations

Time (MDT) Temp. Windchill Dew Point Humidity Pressure Visibility Wind Dir Wind Speed Gust Speed Precip Events Conditions
12:15 AM 50.0 °F - 17.6 °F 28% 30.19 in 10.0 mi ESE 19.6 mph 25.3 mph N/A   Clear
12:35 AM 50.0 °F - 17.6 °F 28% 30.20 in 10.0 mi ESE 20.7 mph 27.6 mph N/A   Clear
12:55 AM 48.2 °F - 17.6 °F 30% 30.20 in 10.0 mi ESE 20.7 mph 27.6 mph N/A   Clear
1:15 AM 48.2 °F - 17.6 °F 30% 30.20 in 10.0 mi ESE 21.9 mph 28.8 mph N/A   Clear
1:35 AM 46.4 °F 39.0 °F 17.6 °F 32% 30.19 in 10.0 mi ESE 19.6 mph 27.6 mph N/A   Clear
1:55 AM 46.4 °F 39.0 °F 17.6 °F 32% 30.20 in 10.0 mi ESE 19.6 mph 27.6 mph N/A   Clear
2:15 AM 46.4 °F 39.5 °F 17.6 °F 32% 30.20 in 10.0 mi SE 17.3 mph 24.2 mph N/A   Clear
2:35 AM 44.6 °F 37.2 °F 17.6 °F 34% 30.20 in 10.0 mi ESE 17.3 mph 20.7 mph N/A   Clear
2:55 AM 44.6 °F 37.4 °F 17.6 °F 34% 30.19 in 10.0 mi ESE 16.1 mph 21.9 mph N/A   Clear
3:15 AM 44.6 °F 37.4 °F 17.6 °F 34% 30.19 in 10.0 mi ESE 16.1 mph - N/A   Clear
3:35 AM 44.6 °F 37.8 °F 17.6 °F 34% 30.19 in 10.0 mi SE 15.0 mph - N/A   Clear
3:55 AM 44.6 °F 37.4 °F 15.8 °F 31% 30.19 in 10.0 mi SE 16.1 mph - N/A   Clear
4:20 AM 42.8 °F 35.8 °F 15.8 °F 34% 30.18 in 10.0 mi SE 13.8 mph - N/A   Clear
4:35 AM 42.8 °F 35.8 °F 15.8 °F 34% 30.18 in 10.0 mi SE 13.8 mph - N/A   Clear
4:55 AM 42.8 °F 34.5 °F 15.8 °F 34% 30.18 in 10.0 mi ESE 18.4 mph 24.2 mph N/A   Clear
5:15 AM 42.8 °F 35.1 °F 15.8 °F 34% 30.18 in 10.0 mi SE 16.1 mph 21.9 mph N/A   Clear
5:35 AM 41.0 °F 33.5 °F 15.8 °F 36% 30.18 in 10.0 mi SE 13.8 mph - N/A   Clear
5:55 AM 41.0 °F 33.5 °F 14.0 °F 33% 30.18 in 10.0 mi SE 13.8 mph 18.4 mph N/A   Clear
6:15 AM 39.2 °F 31.6 °F 14.0 °F 36% 30.18 in 10.0 mi SE 12.7 mph - N/A   Clear
6:35 AM 41.0 °F 34.7 °F 14.0 °F 33% 30.18 in 10.0 mi SE 10.4 mph - N/A   Clear
6:55 AM 41.0 °F 33.9 °F 15.8 °F 36% 30.19 in 10.0 mi SSE 12.7 mph - N/A   Clear
7:15 AM 41.0 °F 33.1 °F 15.8 °F 36% 30.19 in 10.0 mi ESE 15.0 mph - N/A   Clear
7:35 AM 44.6 °F 38.4 °F 15.8 °F 31% 30.19 in 10.0 mi SE 12.7 mph 18.4 mph N/A   Clear
7:55 AM 46.4 °F 39.8 °F 17.6 °F 32% 30.19 in 10.0 mi ESE 16.1 mph 23.0 mph N/A   Clear
8:15 AM 48.2 °F - 17.6 °F 30% 30.19 in 10.0 mi ESE 17.3 mph 24.2 mph N/A   Clear
8:35 AM 50.0 °F - 17.6 °F 28% 30.19 in 10.0 mi ESE 24.2 mph 31.1 mph N/A   Clear
8:55 AM 50.0 °F - 15.8 °F 26% 30.19 in 10.0 mi ESE 21.9 mph 31.1 mph N/A   Clear
9:15 AM 51.8 °F - 17.6 °F 26% 30.19 in 10.0 mi ESE 24.2 mph 29.9 mph N/A   Clear
9:35 AM 53.6 °F - 15.8 °F 22% 30.19 in 10.0 mi SE 24.2 mph 33.4 mph N/A   Clear
9:55 AM 53.6 °F - 14.0 °F 21% 30.19 in 10.0 mi ESE 24.2 mph 32.2 mph N/A   Clear
10:35 AM 55.4 °F - 14.0 °F 20% 30.17 in 10.0 mi ESE 23.0 mph 34.5 mph N/A   Clear
10:55 AM 57.2 °F - 14.0 °F 18% 30.17 in 10.0 mi ESE 23.0 mph 31.1 mph N/A   Clear
11:35 AM 60.8 °F - 14.0 °F 16% 30.15 in 10.0 mi ESE 24.2 mph 32.2 mph N/A   Clear
11:55 AM 60.8 °F - 14.0 °F 16% 30.14 in 10.0 mi ESE 23.0 mph 34.5 mph N/A   Clear
12:15 PM 62.6 °F - 14.0 °F 15% 30.14 in 10.0 mi ESE 20.7 mph 32.2 mph N/A   Clear
12:35 PM 64.4 °F - 14.0 °F 14% 30.13 in 10.0 mi ESE 24.2 mph 32.2 mph N/A   Clear
12:55 PM 62.6 °F - 14.0 °F 15% 30.11 in 10.0 mi ESE 21.9 mph 29.9 mph N/A   Clear
1:15 PM 64.4 °F - 14.0 °F 14% 30.10 in 10.0 mi ESE 21.9 mph 29.9 mph N/A   Clear
1:35 PM 66.2 °F - 14.0 °F 13% 30.09 in 10.0 mi ESE 19.6 mph 33.4 mph N/A   Clear
1:55 PM 68.0 °F - 14.0 °F 12% 30.08 in 10.0 mi ESE 20.7 mph 27.6 mph N/A   Clear
2:15 PM 68.0 °F - 14.0 °F 12% 30.06 in 7.0 mi SE 20.7 mph 27.6 mph N/A   Clear
2:35 PM 69.8 °F - 14.0 °F 12% 30.05 in 10.0 mi East 19.6 mph 26.5 mph N/A   Clear
2:55 PM 69.8 °F - 14.0 °F 12% 30.04 in 10.0 mi SE 15.0 mph 24.2 mph N/A   Clear
3:15 PM 71.6 °F - 14.0 °F 11% 30.03 in 10.0 mi SE 17.3 mph 21.9 mph N/A   Clear
3:35 PM 69.8 °F - 14.0 °F 12% 30.01 in 10.0 mi ESE 11.5 mph 25.3 mph N/A   Clear
3:55 PM 71.6 °F - 12.2 °F 10% 30.00 in 10.0 mi SE 11.5 mph 18.4 mph N/A   Clear
4:15 PM 71.6 °F - 12.2 °F 10% 29.98 in 10.0 mi ESE 12.7 mph 17.3 mph N/A   Clear
4:35 PM 71.6 °F - 12.2 °F 10% 29.97 in 10.0 mi ESE 13.8 mph 17.3 mph N/A   Clear
4:55 PM 71.6 °F - 12.2 °F 10% 29.96 in 10.0 mi East 11.5 mph 19.6 mph N/A   Clear
5:15 PM 69.8 °F - 12.2 °F 11% 29.95 in 10.0 mi ESE 11.5 mph - N/A   Clear
5:35 PM 71.6 °F - 14.0 °F 11% 29.95 in 10.0 mi ESE 6.9 mph - N/A   Clear
5:55 PM 71.6 °F - 14.0 °F 11% 29.94 in 10.0 mi East 9.2 mph - N/A   Clear
6:15 PM 73.4 °F - 14.0 °F 10% 29.94 in 10.0 mi ESE 9.2 mph - N/A   Clear
6:35 PM 71.6 °F - 14.0 °F 11% 29.93 in 10.0 mi ESE 9.2 mph - N/A   Clear
6:55 PM 71.6 °F - 14.0 °F 11% 29.91 in 10.0 mi ESE 8.1 mph - N/A   Clear
7:15 PM 69.8 °F - 14.0 °F 12% 29.91 in 10.0 mi ESE 8.1 mph - N/A   Clear
7:35 PM 68.0 °F - 12.2 °F 12% 29.91 in 10.0 mi ESE 6.9 mph - N/A   Clear
7:55 PM 64.4 °F - 12.2 °F 13% 29.91 in 10.0 mi ESE 6.9 mph - N/A   Clear
8:15 PM 62.6 °F - 12.2 °F 14% 29.91 in 10.0 mi SE 5.8 mph - N/A   Clear
8:35 PM 60.8 °F - 12.2 °F 15% 29.91 in 10.0 mi ESE 3.5 mph - N/A   Clear
8:55 PM 59.0 °F - 10.4 °F 15% 29.91 in 10.0 mi SE 4.6 mph - N/A   Clear
9:15 PM 59.0 °F - 10.4 °F 15% 29.92 in 10.0 mi SE 5.8 mph - N/A   Clear
9:35 PM 55.4 °F - 10.4 °F 17% 29.93 in 10.0 mi SSE 4.6 mph - N/A   Clear
9:55 PM 55.4 °F - 10.4 °F 17% 29.94 in 10.0 mi South 6.9 mph - N/A   Clear
10:15 PM 55.4 °F - 10.4 °F 17% 29.94 in 10.0 mi SSE 5.8 mph - N/A   Clear
10:35 PM 53.6 °F - 8.6 °F 16% 29.94 in 10.0 mi South 6.9 mph - N/A   Clear
10:55 PM 53.6 °F - 8.6 °F 16% 29.94 in 10.0 mi South 8.1 mph - N/A   Clear
11:15 PM 53.6 °F - 8.6 °F 16% 29.93 in 10.0 mi South 8.1 mph - N/A   Clear
11:35 PM 53.6 °F - 8.6 °F 16% 29.93 in 10.0 mi South 8.1 mph - N/A   Clear
11:55 PM 51.8 °F - 8.6 °F 18% 29.92 in 10.0 mi South 9.2 mph - N/A   Clear